Time,TemperatureF,DewpointF,PressureIn,WindDirection,WindDirectionDegrees,WindSpeedMPH,WindSpeedGustMPH,Humidity,HourlyPrecipIn,Conditions,Clouds,dailyrainin,SolarRadiationWatts/m^2,SoftwareType,DateUTC
2013-02-03 00:12:00,16.2,13.0,30.03,NNW,330,2.0,-999.0,85,-99.99,,,0.00,0,weatherlink.com 1.10,2013-02-03 06:12:00,
2013-02-03 00:27:00,16.2,13.0,30.02,NNW,330,3.0,-999.0,85,-99.99,,,0.00,0,weatherlink.com 1.10,2013-02-03 06:27:00,
2013-02-03 00:42:00,16.4,13.0,30.02,NNW,330,0.0,-999.0,85,-99.99,,,0.00,0,weatherlink.com 1.10,2013-02-03 06:42:00,
2013-02-03 00:57:00,16.5,13.0,30.00,NNW,330,2.0,-999.0,85,-99.99,,,0.00,0,weatherlink.com 1.10,2013-02-03 06:57:00,
2013-02-03 01:12:00,16.5,13.0,30.00,NNW,330,4.0,-999.0,85,-99.99,,,0.00,0,weatherlink.com 1.10,2013-02-03 07:12:00,
2013-02-03 01:27:00,16.7,13.0,30.00,NNW,330,4.0,-999.0,85,-99.99,,,0.00,0,weatherlink.com 1.10,2013-02-03 07:27:00,
2013-02-03 01:42:00,16.9,13.0,30.00,NNW,330,1.0,-999.0,85,-99.99,,,0.00,0,weatherlink.com 1.10,2013-02-03 07:42:00,
2013-02-03 01:57:00,16.9,13.0,29.99,NNW,330,3.0,-999.0,85,-99.99,,,0.00,0,weatherlink.com 1.10,2013-02-03 07:57:00,
2013-02-03 02:12:00,17.0,13.0,29.99,NNW,330,4.0,-999.0,85,-99.99,,,0.00,0,weatherlink.com 1.10,2013-02-03 08:12:00,
2013-02-03 02:27:00,17.0,14.0,29.99,NNW,330,5.0,-999.0,86,-99.99,,,0.00,0,weatherlink.com 1.10,2013-02-03 08:27:00,
2013-02-03 02:42:00,17.2,14.0,29.98,NNW,330,4.0,-999.0,87,-99.99,,,0.00,0,weatherlink.com 1.10,2013-02-03 08:42:00,
2013-02-03 02:57:00,17.0,14.0,29.98,NNW,330,4.0,-999.0,88,-99.99,,,0.00,0,weatherlink.com 1.10,2013-02-03 08:57:00,
2013-02-03 03:12:00,17.0,14.0,29.97,NNW,330,6.0,-999.0,88,-99.99,,,0.00,0,weatherlink.com 1.10,2013-02-03 09:12:00,
2013-02-03 03:27:00,17.3,15.0,29.97,NNW,330,9.0,-999.0,89,-99.99,,,0.00,0,weatherlink.com 1.10,2013-02-03 09:27:00,
2013-02-03 03:42:00,17.5,15.0,29.97,NNW,330,7.0,-999.0,89,-99.99,,,0.00,0,weatherlink.com 1.10,2013-02-03 09:42:00,
2013-02-03 03:57:00,18.0,16.0,29.97,NNW,330,7.0,-999.0,90,-99.99,,,0.00,0,weatherlink.com 1.10,2013-02-03 09:57:00,
2013-02-03 04:12:00,17.8,15.0,29.97,NNW,330,11.0,-999.0,90,-99.99,,,0.00,0,weatherlink.com 1.10,2013-02-03 10:12:00,
2013-02-03 04:27:00,18.0,16.0,29.97,NNW,330,12.0,-999.0,90,-99.99,,,0.00,0,weatherlink.com 1.10,2013-02-03 10:27:00,
2013-02-03 04:43:00,18.3,16.0,29.97,NNW,330,11.0,-999.0,90,-99.99,,,0.00,0,weatherlink.com 1.10,2013-02-03 10:43:00,
2013-02-03 04:58:00,18.6,16.0,29.97,NNW,330,8.0,-999.0,90,-99.99,,,0.00,0,weatherlink.com 1.10,2013-02-03 10:58:00,
2013-02-03 05:13:00,18.9,17.0,29.98,NNW,330,10.0,-999.0,90,-99.99,,,0.00,0,weatherlink.com 1.10,2013-02-03 11:13:00,
2013-02-03 05:28:00,19.4,17.0,29.98,NNW,330,10.0,-999.0,90,-99.99,,,0.00,0,weatherlink.com 1.10,2013-02-03 11:28:00,
2013-02-03 05:43:00,19.9,18.0,29.98,NNW,330,15.0,-999.0,90,-99.99,,,0.00,0,weatherlink.com 1.10,2013-02-03 11:43:00,
2013-02-03 05:58:00,20.3,18.0,29.98,NNW,330,13.0,-999.0,90,-99.99,,,0.00,0,weatherlink.com 1.10,2013-02-03 11:58:00,
2013-02-03 06:13:00,20.6,18.0,29.98,NNW,329,18.0,-999.0,90,-99.99,,,0.00,0,weatherlink.com 1.10,2013-02-03 12:13:00,
2013-02-03 06:28:00,21.1,18.0,29.99,NW,311,16.0,-999.0,89,-99.99,,,0.00,0,weatherlink.com 1.10,2013-02-03 12:28:00,
2013-02-03 06:43:00,21.3,18.0,30.00,NW,306,19.0,-999.0,88,-99.99,,,0.00,0,weatherlink.com 1.10,2013-02-03 12:43:00,
2013-02-03 06:58:00,21.6,18.0,30.00,NW,309,15.0,-999.0,85,-99.99,,,0.00,0,weatherlink.com 1.10,2013-02-03 12:58:00,
2013-02-03 07:13:00,21.6,18.0,30.00,NW,315,22.0,-999.0,84,-99.99,,,0.00,0,weatherlink.com 1.10,2013-02-03 13:13:00,
2013-02-03 07:28:00,21.8,18.0,30.01,WNW,300,12.0,-999.0,84,-99.99,,,0.00,9,weatherlink.com 1.10,2013-02-03 13:28:00,
2013-02-03 07:43:00,21.4,17.0,30.02,WNW,290,15.0,-999.0,84,-99.99,,,0.00,16,weatherlink.com 1.10,2013-02-03 13:43:00,
2013-02-03 07:58:00,21.0,16.0,30.03,NW,308,23.0,-999.0,82,-99.99,,,0.00,42,weatherlink.com 1.10,2013-02-03 13:58:00,
2013-02-03 08:13:00,20.5,15.0,30.04,NW,310,22.0,-999.0,78,-99.99,,,0.00,63,weatherlink.com 1.10,2013-02-03 14:13:00,
2013-02-03 08:28:00,20.5,15.0,30.04,WNW,298,28.0,-999.0,78,-99.99,,,0.00,84,weatherlink.com 1.10,2013-02-03 14:28:00,
2013-02-03 08:43:00,20.2,14.0,30.05,WNW,302,20.0,-999.0,77,-99.99,,,0.00,54,weatherlink.com 1.10,2013-02-03 14:43:00,
2013-02-03 08:58:00,20.0,14.0,30.05,WNW,298,25.0,-999.0,78,-99.99,,,0.00,239,weatherlink.com 1.10,2013-02-03 14:58:00,
2013-02-03 09:13:00,19.4,13.0,30.05,WNW,300,20.0,-999.0,75,-99.99,,,0.00,292,weatherlink.com 1.10,2013-02-03 15:13:00,
2013-02-03 09:28:00,19.4,12.0,30.06,NW,307,28.0,-999.0,74,-99.99,,,0.00,355,weatherlink.com 1.10,2013-02-03 15:28:00,
2013-02-03 09:43:00,19.4,12.0,30.07,WNW,302,23.0,-999.0,72,-99.99,,,0.00,392,weatherlink.com 1.10,2013-02-03 15:43:00,
2013-02-03 09:58:00,19.4,12.0,30.07,WNW,298,24.0,-999.0,72,-99.99,,,0.00,374,weatherlink.com 1.10,2013-02-03 15:58:00,
2013-02-03 10:13:00,19.7,12.0,30.08,WNW,299,19.0,-999.0,71,-99.99,,,0.00,445,weatherlink.com 1.10,2013-02-03 16:13:00,
2013-02-03 10:28:00,20.0,12.0,30.09,WNW,298,17.0,-999.0,71,-99.99,,,0.00,473,weatherlink.com 1.10,2013-02-03 16:28:00,
2013-02-03 10:58:00,21.0,12.0,30.11,WNW,301,15.0,-999.0,69,-99.99,,,0.00,513,weatherlink.com 1.10,2013-02-03 16:58:00,
2013-02-03 11:13:00,21.6,12.0,30.11,WNW,302,16.0,-999.0,67,-99.99,,,0.00,527,weatherlink.com 1.10,2013-02-03 17:13:00,
2013-02-03 11:29:00,21.4,12.0,30.11,WNW,294,17.0,-999.0,67,-99.99,,,0.00,536,weatherlink.com 1.10,2013-02-03 17:29:00,
2013-02-03 11:44:00,21.8,12.0,30.11,WNW,297,16.0,-999.0,65,-99.99,,,0.00,547,weatherlink.com 1.10,2013-02-03 17:44:00,
2013-02-03 11:59:00,21.6,11.0,30.11,WNW,292,17.0,-999.0,64,-99.99,,,0.00,557,weatherlink.com 1.10,2013-02-03 17:59:00,
2013-02-03 12:14:00,22.5,12.0,30.11,WNW,287,18.0,-999.0,65,-99.99,,,0.00,554,weatherlink.com 1.10,2013-02-03 18:14:00,
2013-02-03 12:29:00,23.6,13.0,30.09,WNW,294,16.0,-999.0,65,-99.99,,,0.00,550,weatherlink.com 1.10,2013-02-03 18:29:00,
2013-02-03 12:44:00,24.1,13.0,30.10,WNW,288,16.0,-999.0,62,-99.99,,,0.00,552,weatherlink.com 1.10,2013-02-03 18:44:00,
2013-02-03 12:59:00,24.1,12.0,30.10,WNW,286,22.0,-999.0,61,-99.99,,,0.00,543,weatherlink.com 1.10,2013-02-03 18:59:00,
2013-02-03 13:14:00,25.0,13.0,30.09,NW,304,18.0,-999.0,60,-99.99,,,0.00,536,weatherlink.com 1.10,2013-02-03 19:14:00,
2013-02-03 13:29:00,25.0,13.0,30.09,WNW,283,13.0,-999.0,60,-99.99,,,0.00,522,weatherlink.com 1.10,2013-02-03 19:29:00,
2013-02-03 13:44:00,25.6,13.0,30.09,West,277,19.0,-999.0,59,-99.99,,,0.00,519,weatherlink.com 1.10,2013-02-03 19:44:00,
2013-02-03 13:59:00,26.1,15.0,30.09,West,277,20.0,-999.0,62,-99.99,,,0.00,469,weatherlink.com 1.10,2013-02-03 19:59:00,
2013-02-03 14:14:00,26.1,14.0,30.08,WNW,293,18.0,-999.0,60,-99.99,,,0.00,434,weatherlink.com 1.10,2013-02-03 20:14:00,
2013-02-03 14:29:00,26.4,14.0,30.09,WNW,290,13.0,-999.0,59,-99.99,,,0.00,371,weatherlink.com 1.10,2013-02-03 20:29:00,
2013-02-03 14:44:00,26.6,13.0,30.08,WNW,285,22.0,-999.0,58,-99.99,,,0.00,151,weatherlink.com 1.10,2013-02-03 20:44:00,
2013-02-03 14:59:00,26.7,14.0,30.07,WNW,289,14.0,-999.0,59,-99.99,,,0.00,221,weatherlink.com 1.10,2013-02-03 20:59:00,
2013-02-03 15:14:00,26.0,13.0,30.07,WNW,284,17.0,-999.0,58,-99.99,,,0.00,160,weatherlink.com 1.10,2013-02-03 21:14:00,
2013-02-03 15:29:00,26.0,14.0,30.07,West,274,12.0,-999.0,60,-99.99,,,0.00,135,weatherlink.com 1.10,2013-02-03 21:29:00,
2013-02-03 15:44:00,25.6,13.0,30.06,WNW,293,11.0,-999.0,59,-99.99,,,0.00,121,weatherlink.com 1.10,2013-02-03 21:44:00,
2013-02-03 15:59:00,25.4,14.0,30.06,West,263,9.0,-999.0,63,-99.99,,,0.00,95,weatherlink.com 1.10,2013-02-03 21:59:00,
2013-02-03 16:14:00,24.8,15.0,30.06,West,260,14.0,-999.0,65,-99.99,,,0.00,60,weatherlink.com 1.10,2013-02-03 22:14:00,
2013-02-03 16:29:00,24.7,14.0,30.05,West,263,12.0,-999.0,65,-99.99,,,0.00,46,weatherlink.com 1.10,2013-02-03 22:29:00,
2013-02-03 16:44:00,24.7,15.0,30.05,West,263,14.0,-999.0,67,-99.99,,,0.00,35,weatherlink.com 1.10,2013-02-03 22:44:00,
2013-02-03 16:59:00,24.2,15.0,30.04,West,270,10.0,-999.0,67,-99.99,,,0.00,19,weatherlink.com 1.10,2013-02-03 22:59:00,
2013-02-03 17:14:00,24.2,15.0,30.04,West,262,11.0,-999.0,68,-99.99,,,0.00,7,weatherlink.com 1.10,2013-02-03 23:14:00,
2013-02-03 17:29:00,24.1,16.0,30.04,WSW,255,10.0,-999.0,70,-99.99,,,0.00,0,weatherlink.com 1.10,2013-02-03 23:29:00,
2013-02-03 17:44:00,24.1,16.0,30.04,WSW,256,9.0,-999.0,70,-99.99,,,0.00,0,weatherlink.com 1.10,2013-02-03 23:44:00,
2013-02-03 17:59:00,23.9,16.0,30.04,West,263,5.0,-999.0,72,-99.99,,,0.00,0,weatherlink.com 1.10,2013-02-03 23:59:00,
2013-02-03 18:14:00,23.9,16.0,30.05,WSW,248,5.0,-999.0,72,-99.99,,,0.00,0,weatherlink.com 1.10,2013-02-04 00:14:00,
2013-02-03 18:29:00,23.3,16.0,30.04,West,266,5.0,-999.0,72,-99.99,,,0.00,0,weatherlink.com 1.10,2013-02-04 00:29:00,
2013-02-03 18:44:00,22.1,15.0,30.05,West,263,2.0,-999.0,74,-99.99,,,0.00,0,weatherlink.com 1.10,2013-02-04 00:44:00,
2013-02-03 18:59:00,20.0,14.0,30.04,WSW,258,4.0,-999.0,77,-99.99,,,0.00,0,weatherlink.com 1.10,2013-02-04 00:59:00,
2013-02-03 19:14:00,19.9,14.0,30.04,WSW,245,5.0,-999.0,79,-99.99,,,0.00,0,weatherlink.com 1.10,2013-02-04 01:14:00,
2013-02-03 19:29:00,18.9,13.0,30.04,SSW,208,7.0,-999.0,79,-99.99,,,0.00,0,weatherlink.com 1.10,2013-02-04 01:29:00,
2013-02-03 19:44:00,19.2,14.0,30.04,SSW,203,6.0,-999.0,79,-99.99,,,0.00,0,weatherlink.com 1.10,2013-02-04 01:44:00,
2013-02-03 19:59:00,19.1,14.0,30.05,SSW,201,8.0,-999.0,80,-99.99,,,0.00,0,weatherlink.com 1.10,2013-02-04 01:59:00,
2013-02-03 20:14:00,19.4,14.0,30.05,SSW,193,6.0,-999.0,80,-99.99,,,0.00,0,weatherlink.com 1.10,2013-02-04 02:14:00,
2013-02-03 20:29:00,20.2,15.0,30.04,South,183,1.0,-999.0,80,-99.99,,,0.00,0,weatherlink.com 1.10,2013-02-04 02:29:00,
2013-02-03 20:44:00,20.6,15.0,30.04,South,179,2.0,-999.0,80,-99.99,,,0.00,0,weatherlink.com 1.10,2013-02-04 02:44:00,
2013-02-03 20:59:00,21.0,16.0,30.04,South,179,4.0,-999.0,80,-99.99,,,0.00,0,weatherlink.com 1.10,2013-02-04 02:59:00,
2013-02-03 21:14:00,21.0,15.0,30.04,SSE,161,2.0,-999.0,79,-99.99,,,0.00,0,weatherlink.com 1.10,2013-02-04 03:14:00,
2013-02-03 21:29:00,20.6,15.0,30.04,SSE,153,6.0,-999.0,78,-99.99,,,0.00,0,weatherlink.com 1.10,2013-02-04 03:29:00,
2013-02-03 21:44:00,20.3,14.0,30.03,SSE,150,2.0,-999.0,78,-99.99,,,0.00,0,weatherlink.com 1.10,2013-02-04 03:44:00,
2013-02-03 21:59:00,18.9,13.0,30.03,SE,139,2.0,-999.0,78,-99.99,,,0.00,0,weatherlink.com 1.10,2013-02-04 03:59:00,
2013-02-03 22:14:00,18.1,13.0,30.02,ESE,112,3.0,-999.0,79,-99.99,,,0.00,0,weatherlink.com 1.10,2013-02-04 04:14:00,
2013-02-03 22:29:00,18.0,13.0,30.01,East,96,4.0,-999.0,80,-99.99,,,0.00,0,weatherlink.com 1.10,2013-02-04 04:29:00,
2013-02-03 22:44:00,17.3,12.0,30.00,East,86,2.0,-999.0,81,-99.99,,,0.00,0,weatherlink.com 1.10,2013-02-04 04:44:00,
2013-02-03 22:59:00,18.6,14.0,29.99,ESE,116,4.0,-999.0,82,-99.99,,,0.00,0,weatherlink.com 1.10,2013-02-04 04:59:00,
2013-02-03 23:14:00,20.5,16.0,29.98,SE,136,11.0,-999.0,83,-99.99,,,0.00,0,weatherlink.com 1.10,2013-02-04 05:14:00,
2013-02-03 23:29:00,22.9,17.0,29.96,SE,139,8.0,-999.0,78,-99.99,,,0.00,0,weatherlink.com 1.10,2013-02-04 05:29:00,
2013-02-03 23:44:00,23.3,17.0,29.96,SE,134,7.0,-999.0,77,-99.99,,,0.00,0,weatherlink.com 1.10,2013-02-04 05:44:00,
2013-02-03 23:59:00,24.1,18.0,29.94,SSE,148,11.0,-999.0,77,-99.99,,,0.00,0,weatherlink.com 1.10,2013-02-04 05:59:00,